DIAMANT R/B, 1805

Orbit data source: Space-Track

DIAMANT R/B, 1805 is space debris in LEO originally from a launch on Fri, 26 Nov 1965 UTC launched from the Hamma Guira Space Track Range (HGSTR). Debris objects in space refer to the collection of defunct objects orbiting the Earth. Examples of debris include non-operational satellites, rocket bodies, and fragments generated from explosions, collisions, or faulty payload assembly.

Loading next visibility...
Identifier
1805, 1965-096B
Orbit
LEO
Last TLE update
18 hours ago
Origin
Manufacturer
Sud
Mission
Spacecraft
Bus & Motor
RUBIS, Unknown motor
Mass
65 kg wet, 65 kg dry
Launch date (UTC)
1965-11-26 (59 years ago)
Launch vehicle
Unknown
Launch site
Hamma Guira Space Track Range (HGSTR)
Object type
Payload
Rocket body
Debris
Shape & HBR
Cyl, 2.1 m
Radar Cross Section
1.347 m², Large (>1 m²)

Expand to show TLE details & history

TLE from 18 hours ago
0 DIAMANT R/B
1 01805U 65096B   25128.46559352  .00001271  00000-0  26253-3 0  9999
2 01805  34.2504 277.6821 0590059 286.6543  67.0165 13.86371251948484
Epoch: 2025-05-08T11:10Z
Definitive object data (Epoch: 2025-05-08T11:10:27.28Z)
Latitude
0.00001°
Longitude
-116.46724°
Altitude
793.989 km
Speed
7.533 km/s
True Right ascension
18h 30m 43s
True Declination
0° 00' 00"
Sunlit
Object was in full shadow at TLE epoch
Visualization TLE readout
Latitude
34.32874°
Longitude
-26.65262°
Altitude
1,346.679 km
Speed
6.988 km/s
Apparent Right ascension
00h 44m 47s
Apparent Declination
1° 21' 01"
Sunlit
Object is in daylight
Visualization observer readout
Local Sidereal Time
13:04:06
Azimuth
7.295° NNE
Elevation
-48.498°
Doppler factor
1
Orbital elements
Apogee altitude
1,376.638 km
Perigee altitude
512.473 km
Semi-major axis
7,322.693 km
Eccentricity
0.0590059
Inclination
34.2504°
RAAN
277.6821°
Arg. of periapsis
286.6543°
True anomaly
73.41233°
Mean anomaly
67.0165°
Eccentric anomaly
70.19737°
Mean motion
3.46367 °/min
BSTAR
0.00026253
Orbital period
103.94 mins
Loading maneuver chart data...
Loading SW <> Apogee altitude chart data...
Loading historical data...
Loading historical data...
Loading historical data...
Loading historical data...
Loading historical data...
Loading historical data...
Loading historical data...
Other satellites on launch #96 in the year 1965 (1965-11-26 UTC)

DIAMANT R/B Visibility forecast

Observer location: undefined°, undefined°

Span
Click to sort rows by Start time (UTC) header in descending order
Start Az.
Max El. time (UTC)
Max El. Az.
Max El.
End time (UTC)
End Az.
4 mins2025-05-09 11:33:31.244Z152.53° SSE2025-05-09 11:35:31.244Z134.965° SE11.676°2025-05-09 11:37:31.244Z119.045° SE
11 mins2025-05-09 13:19:31.244Z209.094° SW2025-05-09 13:24:31.244Z148.676° SSE30.072°2025-05-09 13:30:31.244Z96.625° ESE
14 mins2025-05-09 15:08:31.244Z243.809° WSW2025-05-09 15:14:31.244Z163.513° S39.933°2025-05-09 15:22:31.244Z97.866° ESE
14 mins2025-05-09 16:58:31.244Z259.871° W2025-05-09 17:04:31.244Z195.565° SSW39.308°2025-05-09 17:12:31.244Z117.344° SE
13 mins2025-05-09 18:48:31.244Z261.743° W2025-05-09 18:54:31.244Z212.659° SW28.739°2025-05-09 19:01:31.244Z150.225° SSE
|